TIANLIAN 2-03

Last updated on Sun Apr 12 2026 00:02:56 GMT+0000 (Coordinated Universal Time)

1 53100U 22078A 26101.30890281 .00000074 00000+0 00000+0 0 9998 2 53100 0.5018 74.8794 0002862 274.2427 332.1835 1.00272202 13870
UTC large
Height (km)
Speed (km/s)
/
Latitude / Longitude
Inclination (degrees)
Orbital Period (minutes)
Azimuth
Elevation
Range (km)
Doppler Factor

Next 0 passes for location: London (51.5072 / 0.1276)

Sorry there are no passes over London.
TIANLIAN 2-03